Regional Weather Roundup
Issued by NWS

Home | Current Version | Previous Version | Graphics & Text | Print | Product List | Glossary On
Versions: 1 2 3 4 5 6 7 8 9 10 11 12 13 14 15 16 17 18 19 20 21 22 23 24 25 26 27 28 29 30 31 32 33 34 35 36 37 38 39 40 41 42 43 44 45 46 47 48 49 50
484
ASUS43 KOAX 092102
RWRNE

WEATHER ROUNDUP FOR NEBRASKA
NATIONAL WEATHER SERVICE OMAHA NE
300 PM CST FRI DEC 09 2016

NOTES: SATELLITE DATA IS BEING USED TO AUGMENT CLOUD COVER ABOVE
       12000 FEET.
       "FAIR" INDICATES FEW OR NO CLOUDS BELOW 12,000 FEET WITH NO
       SIGNIFICANT WEATHER AND/OR OBSTRUCTIONS TO VISIBILITY.

  * THESE STATIONS DO NOT REPORT WEATHER SUCH AS RAIN...SNOW OR FOG.

NEZ001>004-019>022-054>056-092200-
NEBRASKA PANHANDLE

CITY           SKY/WX    TMP DP  RH WIND       PRES   REMARKS
SCOTTSBLUFF    SUNNY     27  10  49 NE7       30.18S WCI  19
ALLIANCE       SUNNY     21   7  54 N10       30.19R WCI  10
KIMBALL        MOSUNNY   27  19  73 N8        30.13R WCI  18
SIDNEY         SUNNY     28  15  58 N13       30.15R WCI  17
$$

NEZ057>060-069>072-079>082-092200-
SOUTHWEST NEBRASKA

CITY           SKY/WX    TMP DP  RH WIND       PRES   REMARKS
NORTH PLATTE   PTSUNNY   28  13  53 S7        30.26R WCI  21
IMPERIAL       SUNNY     30  18  60 S6        30.19R WCI  24
LEXINGTON      CLOUDY    25  13  60 S10       30.32R WCI  15
MCCOOK         MOSUNNY   29  17  61 S8        30.25S WCI  21
OGALLALA       SUNNY     28  15  58 CALM      30.21F
$$

NEZ005>010-023>029-035>040-094-092200-
NORTH CENTRAL NEBRASKA

CITY           SKY/WX    TMP DP  RH WIND       PRES   REMARKS
VALENTINE      MOSUNNY   22   6  50 NE3       30.31R
AINSWORTH      PTSUNNY   22   9  57 S7        30.30S WCI  13
BROKEN BOW     MOSUNNY   24  10  55 S13       30.30F WCI  12
O`NEILL        CLOUDY    19  10  68 SE8       30.38S WCI   8
THEDFORD       SUNNY     28  11  49 SW5       30.25F WCI  22
$$

NEZ041-046>049-061>064-073>077-083>087-092200-
SOUTH CENTRAL NEBRASKA

CITY           SKY/WX    TMP DP  RH WIND       PRES   REMARKS
GRAND ISLAND   CLOUDY    21  11  65 SE9       30.40R WCI  11
AURORA         CLOUDY    22  10  60 SE12      30.40F WCI  10
HASTINGS       CLOUDY    23  10  57 S13       30.39R WCI  11
HEBRON         CLOUDY    24  13  63 SE10      30.43S WCI  13
HOLDREGE       MOSUNNY   25  13  62 SE9       30.33R WCI  15
KEARNEY *      CLOUDY    25  10  54 S9        30.36R WCI  15
YORK           CLOUDY    21  10  63 SE9       30.43F WCI  11
$$

NEZ011>018-030>034-042>045-092200-
NORTHEAST NEBRASKA

CITY           SKY/WX    TMP DP  RH WIND       PRES   REMARKS
NORFOLK        CLOUDY    17   7  64 SE9       30.44F WCI   6
ALBION         CLOUDY    19  11  70 SE8       30.41F WCI   9
BLAIR          CLOUDY    20  10  63 CALM      30.50S
FREMONT        CLOUDY    19  11  70 SE5       30.51S WCI  12
TEKAMAH        CLOUDY    17   8  67 CALM      30.53F
WAYNE          CLOUDY    18   8  65 S7        30.49S WCI   8
$$

NEZ050>053-065>068-078-088>093-092200-
SOUTHEAST NEBRASKA

CITY           SKY/WX    TMP DP  RH WIND       PRES   REMARKS
LINCOLN        CLOUDY    22  11  62 E7        30.50F WCI  13
OMAHA EPPLEY   CLOUDY    20   8  60 E3        30.54F
BEATRICE       CLOUDY    25  11  56 SE6       30.47S WCI  18
FALLS CITY     CLOUDY    25  10  53 SE6       30.52F WCI  18
NEBRASKA CITY  CLOUDY    22   8  56 SE5       30.51F WCI  16
PLATTSMOUTH    CLOUDY    21   8  57 SE3       30.51S
$$

NEZ044-045-051>053-067-092200-
OMAHA AREA

CITY           SKY/WX    TMP DP  RH WIND       PRES   REMARKS
OMAHA EPPLEY   CLOUDY    20   8  60 E3        30.54F
BLAIR          CLOUDY    20  10  63 CALM      30.50S
FREMONT        CLOUDY    19  11  70 SE5       30.51S WCI  12
MILLARD        CLOUDY    23  13  64 CALM      30.52S
OFFUTT AFB     CLOUDY    21  11  64 E3        30.52F
PLATTSMOUTH    CLOUDY    21   8  57 SE3       30.51S
WAHOO          CLOUDY    21  12  67 SE5       30.50F WCI  15
$$




USA.gov is the U.S. government's official web portal to all federal, state and local government web resources and services.